FW3892 Weather Reports


Display with metric or nautical units.
time (UTC)temp
F
wind
direction
speed
MPH
gust
MPH
rain 1hr
in
rain 24hr
in
rain mn
in
humidity
%
barometer
mb
20260505054559 50 62 0.0 1.0 0.00 0.00 0.00 79 1010.9
20260505053054 50 19 0.0 2.0 0.00 0.00 0.00 78 1010.9
20260505051611 50 113 0.0 2.0 0.00 0.00 0.00 77 1010.9
20260505041550 52 225 0.0 2.0 0.00 0.00 0.00 72 1011.2
20260505040045 52 5 0.0 1.0 0.00 0.00 0.00 70 1011.2
20260505034544 52 259 0.0 3.0 0.00 0.00 0.00 69 1011.1
20260505033043 53 120 0.0 2.0 0.00 0.00 0.00 68 1011.0
20260505031550 53 233 0.0 2.0 0.00 0.00 0.00 66 1011.0
20260505030043 53 206 0.0 2.0 0.00 0.00 0.00 65 1011.2
20260505024548 54 272 0.0 3.0 0.00 0.00 0.00 63 1011.3
20260505023041 54 102 0.0 3.0 0.00 0.00 0.00 62 1011.2
20260505021542 55 196 0.0 4.0 0.00 0.00 0.00 60 1011.3
20260505020040 55 304 0.0 3.0 0.00 0.00 0.00 58 1011.2
20260505014540 56 166 0.0 3.0 0.00 0.00 0.00 56 1011.1
20260505013036 57 164 0.0 2.0 0.00 0.00 0.00 53 1011.0
20260505011537 57 249 1.0 6.0 0.00 0.00 0.00 52 1010.8
20260505010037 58 237 1.0 4.0 0.00 0.00 0.00 50 1010.5
20260505004535 58 242 2.0 6.0 0.00 0.00 0.00 50 1010.2
20260505003035 58 325 1.0 7.0 0.00 0.00 0.00 49 1009.9
20260505001534 59 141 0.0 5.0 0.00 0.00 0.00 49 1009.4
20260505000012 60 240 0.0 3.0 0.00 0.00 0.00 46 1009.2
20260504234511 62 272 2.0 7.0 0.00 0.00 0.00 43 1008.9
20260504233011 63 44 0.0 5.0 0.00 0.00 0.00 40 1008.6
20260504231510 64 241 2.0 6.0 0.00 0.00 0.00 38 1008.4
20260504230010 65 333 2.0 10.0 0.00 0.00 0.00 39 1008.2
20260504224509 65 36 1.0 6.0 0.00 0.00 0.00 38 1007.8
20260504223009 66 224 1.0 12.0 0.00 0.00 0.00 35 1007.7
20260504221510 67 308 3.0 7.0 0.00 0.00 0.00 34 1007.6
20260504220008 68 93 2.0 6.0 0.00 0.00 0.00 32 1007.3
20260504214507 68 96 3.0 8.0 0.00 0.00 0.00 31 1007.6
20260504213006 69 162 2.0 7.0 0.00 0.00 0.00 29 1007.3
20260504211506 70 210 2.0 6.0 0.00 0.00 0.00 27 1007.2
20260504210006 70 235 3.0 10.0 0.00 0.00 0.00 26 1007.2
20260504204505 71 155 2.0 5.0 0.00 0.00 0.00 26 1007.2
20260504203004 71 231 3.0 12.0 0.00 0.00 0.00 25 1007.1
20260504201503 72 90 2.0 9.0 0.00 0.00 0.00 25 1007.2
20260504200003 72 226 4.0 14.0 0.00 0.00 0.00 24 1007.2
20260504194505 72 214 2.0 15.0 0.00 0.00 0.00 24 1007.2
20260504193005 74 239 1.0 6.0 0.00 0.00 0.00 23 1007.2
20260504191503 74 316 2.0 12.0 0.00 0.00 0.00 22 1007.2
20260504190129 75 203 2.0 9.0 0.00 0.00 0.00 22 1007.4
20260504184559 74 205 3.0 12.0 0.00 0.00 0.00 23 1007.5
20260504183059 74 129 3.0 8.0 0.00 0.00 0.00 21 1007.7
20260504181557 74 310 3.0 11.0 0.00 0.00 0.00 23 1007.8
20260504180054 73 258 3.0 9.0 0.00 0.00 0.00 22 1008.1
20260504174559 73 181 3.0 10.0 0.00 0.00 0.00 22 1008.1
20260504173057 73 65 2.0 8.0 0.00 0.00 0.00 22 1008.0
20260504171550 72 190 4.0 13.0 0.00 0.00 0.00 22 1008.1
20260504081547 41 153 0.0 0.0 0.00 0.00 0.00 71 1010.9